2019-043T16:46:25.018,   1, 240,   2,     1,   4,          0,     44.645,  99285.000,     1.862,    73.869,    22.739,   291.544, 2, 5.486E-04, -1.00,   2,  2.573E+00,  3.654E-02,  2.640E-10,  6.284E-12,  6.404E+02,  1.524E+01, 255
2019-043T16:46:26.018,   1, 240,   2,     1,   4,          0,     44.645,  99285.000,     1.861,    73.880,    22.736,   291.502, 2, 5.486E-04, -1.00,   2,  2.430E+00,  2.650E-02,  2.615E-10,  5.612E-12,  6.715E+02,  1.441E+01, 255
2019-043T16:46:27.018,   1, 240,   2,     1,   4,          0,     44.645,  99285.000,     1.861,    73.891,    22.734,   291.460, 2, 5.486E-04, -1.00,   2,  3.481E+00,  2.550E-02,  3.003E-10,  6.763E-12,  5.384E+02,  1.213E+01, 255
2019-043T16:46:28.018,   1, 240,   2,     1,   4,          0,     44.645,  99285.000,     1.860,    73.901,    22.732,   291.418, 2, 5.486E-04, -1.00,   2,  5.321E+00,  3.097E-02,  2.989E-10,  8.657E-12,  3.506E+02,  1.015E+01, 255
2019-043T16:46:55.019,   1, 240,   2,     1,   4,          0,     44.645,  99285.000,     1.850,    74.191,    22.673,   290.261, 2, 5.486E-04, -1.00,   2,  1.905E+00,  3.274E-02,  2.822E-10,  6.255E-12,  9.244E+02,  2.049E+01, 255
2019-043T16:46:56.019,   1, 240,   2,     1,   4,          0,     44.645,  99285.000,     1.849,    74.202,    22.671,   290.218, 2, 5.486E-04, -1.00,   2,  1.809E+00,  2.363E-02,  2.888E-10,  5.488E-12,  9.961E+02,  1.893E+01, 255
2019-043T16:46:57.019,   1, 240,   2,     1,   4,          0,     44.645,  99285.000,     1.849,    74.213,    22.669,   290.174, 2, 5.486E-04, -1.00,   2,  3.654E+00,  2.417E-02,  3.486E-10,  6.651E-12,  5.954E+02,  1.136E+01, 255
2019-043T16:46:58.019,   1, 240,   2,     1,   4,          0,     44.645,  99285.000,     1.848,    74.223,    22.666,   290.130, 2, 5.486E-04, -1.00,   2,  4.192E+00,  2.559E-02,  3.179E-10,  8.097E-12,  4.734E+02,  1.206E+01, 255
2019-043T16:47:24.019,   1, 240,   2,     1,   4,          0,     44.645,  99285.000,     1.838,    74.502,    22.607,   288.971, 2, 5.486E-04, -1.00,   2,  1.456E+00,  4.106E-02,  2.820E-10,  7.102E-12,  1.209E+03,  3.046E+01, 255
2019-043T16:47:25.019,   1, 240,   2,     1,   4,          0,     44.645,  99285.000,     1.838,    74.513,    22.604,   288.925, 2, 5.486E-04, -1.00,   2,  1.920E+00,  3.114E-02,  2.808E-10,  5.615E-12,  9.127E+02,  1.826E+01, 255
2019-043T16:47:26.019,   1, 240,   2,     1,   4,          0,     44.645,  99285.000,     1.837,    74.523,    22.602,   288.880, 2, 5.486E-04, -1.00,   2,  1.938E+00,  2.262E-02,  3.097E-10,  4.878E-12,  9.973E+02,  1.571E+01, 255
2019-043T16:47:27.019,   1, 240,   2,     1,   4,          0,     44.645,  99285.000,     1.837,    74.534,    22.599,   288.834, 2, 5.486E-04, -1.00,   2,  1.995E+00,  1.959E-02,  3.042E-10,  4.988E-12,  9.518E+02,  1.561E+01, 255
2019-043T16:47:28.019,   1, 240,   2,     1,   4,          0,     44.645,  99285.000,     1.836,    74.545,    22.597,   288.789, 2, 5.486E-04, -1.00,   2,  4.200E+00,  2.426E-02,  3.437E-10,  7.140E-12,  5.108E+02,  1.061E+01, 255
2019-043T16:47:41.019,   1, 240,   2,     1,   4,          0,     44.645,  99285.000,     1.831,    74.684,    22.566,   288.190, 2, 5.486E-04, -1.00,   2,  2.187E+00,  2.258E-02,  2.997E-10,  5.011E-12,  8.550E+02,  1.430E+01, 255
2019-043T16:47:42.019,   1, 240,   2,     1,   4,          0,     44.645,  99285.000,     1.831,    74.694,    22.564,   288.143, 2, 5.486E-04, -1.00,   2,  4.320E+00,  2.572E-02,  3.338E-10,  5.116E-12,  4.823E+02,  7.392E+00, 255
2019-043T16:47:43.019,   1, 240,   2,     1,   4,          0,     44.645,  99285.000,     1.830,    74.705,    22.561,   288.097, 2, 5.486E-04, -1.00,   2,  5.644E+00,  3.012E-02,  3.618E-10,  6.119E-12,  4.001E+02,  6.767E+00, 255
2019-043T16:47:44.019,   1, 240,   2,     1,   4,          0,     44.645,  99285.000,     1.830,    74.716,    22.559,   288.050, 2, 5.486E-04, -1.00,   2,  6.004E+00,  3.157E-02,  3.435E-10,  9.013E-12,  3.571E+02,  9.369E+00, 255
2019-043T16:47:54.020,   1, 240,   2,     1,   4,          0,     44.645,  99285.000,     1.826,    74.822,    22.534,   287.580, 2, 5.486E-04, -1.00,   2,  1.635E+00,  3.627E-02,  2.670E-10,  6.326E-12,  1.019E+03,  2.415E+01, 255
2019-043T16:47:55.020,   1, 240,   2,     1,   4,          0,     44.645,  99285.000,     1.826,    74.833,    22.532,   287.533, 2, 5.486E-04, -1.00,   2,  2.040E+00,  3.153E-02,  3.331E-10,  5.083E-12,  1.019E+03,  1.555E+01, 255
2019-043T16:47:56.019,   1, 240,   2,     1,   4,          0,     44.645,  99285.000,     1.825,    74.844,    22.529,   287.485, 2, 5.486E-04, -1.00,   2,  1.825E+00,  2.025E-02,  3.524E-10,  4.580E-12,  1.205E+03,  1.566E+01, 255
2019-043T16:47:57.019,   1, 240,   2,     1,   4,          0,     44.645,  99285.000,     1.825,    74.854,    22.527,   287.438, 2, 5.486E-04, -1.00,   2,  1.896E+00,  1.789E-02,  3.694E-10,  4.619E-12,  1.216E+03,  1.521E+01, 255
2019-043T16:47:58.019,   1, 240,   2,     1,   4,          0,     44.645,  99285.000,     1.824,    74.865,    22.524,   287.390, 2, 5.486E-04, -1.00,   2,  3.131E+00,  2.025E-02,  3.629E-10,  6.287E-12,  7.234E+02,  1.253E+01, 255
2019-043T16:48:09.020,   1, 240,   2,     1,   4,          0,     44.645,  99285.000,     1.820,    74.982,    22.496,   286.862, 2, 5.486E-04, -1.00,   2,  2.167E+00,  4.005E-02,  2.722E-10,  6.067E-12,  7.840E+02,  1.748E+01, 255
2019-043T16:48:10.020,   1, 240,   2,     1,   4,          0,     44.645,  99285.000,     1.820,    74.993,    22.494,   286.814, 2, 5.486E-04, -1.00,   2,  4.099E+00,  3.103E-02,  3.848E-10,  4.914E-12,  5.860E+02,  7.484E+00, 255
2019-043T16:48:11.020,   1, 240,   2,     1,   4,          0,     44.645,  99285.000,     1.819,    75.003,    22.491,   286.765, 2, 5.486E-04, -1.00,   2,  4.630E+00,  2.439E-02,  4.550E-10,  4.476E-12,  6.134E+02,  6.034E+00, 255
2019-043T16:48:12.020,   1, 240,   2,     1,   4,          0,     44.645,  99285.000,     1.819,    75.014,    22.489,   286.717, 2, 5.486E-04, -1.00,   2,  3.541E+00,  2.123E-02,  4.072E-10,  4.506E-12,  7.177E+02,  7.941E+00, 255
2019-043T16:48:24.020,   1, 240,   2,     1,   4,          0,     44.645,  99285.000,     1.814,    75.142,    22.458,   286.129, 2, 5.486E-04, -1.00,   2,  1.398E+00,  3.300E-02,  3.665E-10,  5.886E-12,  1.636E+03,  2.628E+01, 255
2019-043T16:48:25.020,   1, 240,   2,     1,   4,          0,     44.645,  99285.000,     1.814,    75.152,    22.455,   286.079, 2, 5.486E-04, -1.00,   2,  1.487E+00,  2.926E-02,  4.140E-10,  4.909E-12,  1.738E+03,  2.060E+01, 255
2019-043T16:48:26.020,   1, 240,   2,     1,   4,          0,     44.645,  99285.000,     1.813,    75.163,    22.452,   286.030, 2, 5.486E-04, -1.00,   2,  1.567E+00,  1.810E-02,  4.867E-10,  4.405E-12,  1.939E+03,  1.755E+01, 255
2019-043T16:48:27.020,   1, 240,   2,     1,   4,          0,     44.645,  99285.000,     1.813,    75.173,    22.449,   285.980, 2, 5.486E-04, -1.00,   2,  1.518E+00,  1.514E-02,  4.722E-10,  4.259E-12,  1.941E+03,  1.751E+01, 255
2019-043T16:48:28.020,   1, 240,   2,     1,   4,          0,     44.645,  99285.000,     1.812,    75.184,    22.447,   285.930, 2, 5.486E-04, -1.00,   2,  2.302E+00,  1.600E-02,  5.085E-10,  5.740E-12,  1.379E+03,  1.556E+01, 255
2019-043T16:48:54.020,   1, 240,   2,     1,   4,          0,     44.645,  99285.000,     1.802,    75.459,    22.376,   284.612, 2, 5.486E-04, -1.00,   2,  1.626E+00,  2.252E-02,  3.212E-10,  4.657E-12,  1.233E+03,  1.787E+01, 255
2019-043T16:48:55.020,   1, 240,   2,     1,   4,          0,     44.645,  99285.000,     1.802,    75.469,    22.374,   284.560, 2, 5.486E-04, -1.00,   2,  1.458E+00,  2.427E-02,  3.483E-10,  3.886E-12,  1.491E+03,  1.663E+01, 255
2019-043T16:48:56.020,   1, 240,   2,     1,   4,          0,     44.645,  99285.000,     1.801,    75.480,    22.371,   284.508, 2, 5.486E-04, -1.00,   2,  1.473E+00,  1.509E-02,  4.016E-10,  3.312E-12,  1.702E+03,  1.404E+01, 255
2019-043T16:48:57.020,   1, 240,   2,     1,   4,          0,     44.645,  99285.000,     1.801,    75.491,    22.368,   284.457, 2, 5.486E-04, -1.00,   2,  1.502E+00,  1.296E-02,  3.965E-10,  3.267E-12,  1.648E+03,  1.358E+01, 255
2019-043T16:48:58.020,   1, 240,   2,     1,   4,          0,     44.645,  99285.000,     1.800,    75.501,    22.365,   284.405, 2, 5.486E-04, -1.00,   2,  2.838E+00,  1.613E-02,  4.084E-10,  4.065E-12,  8.980E+02,  8.938E+00, 255
2019-043T16:48:59.020,   1, 240,   2,     1,   4,          0,     44.645,  99285.000,     1.800,    75.512,    22.362,   284.353, 2, 5.486E-04, -1.00,   2,  5.139E+00,  1.974E-02,  4.691E-10,  4.817E-12,  5.697E+02,  5.850E+00, 255
2019-043T16:49:09.020,   1, 240,   2,     1,   4,          0,     44.645,  99285.000,     1.796,    75.617,    22.334,   283.828, 2, 5.486E-04, -1.00,   2,  1.942E+00,  2.843E-02,  1.984E-10,  4.590E-12,  6.376E+02,  1.475E+01, 255
2019-043T16:49:10.020,   1, 240,   2,     1,   4,          0,     44.645,  99285.000,     1.796,    75.627,    22.331,   283.775, 2, 5.486E-04, -1.00,   2,  3.163E+00,  2.828E-02,  2.473E-10,  3.752E-12,  4.881E+02,  7.405E+00, 255
2019-043T16:49:11.020,   1, 240,   2,     1,   4,          0,     44.645,  99285.000,     1.795,    75.638,    22.329,   283.722, 2, 5.486E-04, -1.00,   2,  3.640E+00,  1.851E-02,  3.118E-10,  3.384E-12,  5.346E+02,  5.803E+00, 255
2019-043T16:49:12.020,   1, 240,   2,     1,   4,          0,     44.645,  99285.000,     1.795,    75.648,    22.326,   283.669, 2, 5.486E-04, -1.00,   2,  3.396E+00,  1.703E-02,  3.254E-10,  3.235E-12,  5.980E+02,  5.945E+00, 255
2019-043T16:49:13.020,   1, 240,   2,     1,   4,          0,     44.645,  99285.000,     1.794,    75.659,    22.323,   283.616, 2, 5.486E-04, -1.00,   2,  4.296E+00,  1.884E-02,  3.382E-10,  3.748E-12,  4.913E+02,  5.446E+00, 255
2019-043T16:49:14.020,   1, 240,   2,     1,   4,          0,     44.645,  99285.000,     1.794,    75.669,    22.320,   283.562, 2, 5.486E-04, -1.00,   2,  6.359E+00,  2.106E-02,  4.650E-10,  4.602E-12,  4.564E+02,  4.516E+00, 255
2019-043T16:49:24.021,   1, 240,   2,     1,   4,          0,     44.645,  99285.000,     1.790,    75.774,    22.291,   283.026, 2, 5.486E-04, -1.00,   2,  1.047E+00,  1.827E-02,  2.264E-10,  3.934E-12,  1.350E+03,  2.346E+01, 255
2019-043T16:49:25.020,   1, 240,   2,     1,   4,          0,     44.645,  99285.000,     1.790,    75.784,    22.288,   282.971, 2, 5.486E-04, -1.00,   2,  1.218E+00,  1.810E-02,  2.414E-10,  3.244E-12,  1.237E+03,  1.663E+01, 255
2019-043T16:49:26.021,   1, 240,   2,     1,   4,          0,     44.645,  99285.000,     1.789,    75.795,    22.285,   282.917, 2, 5.486E-04, -1.00,   2,  1.084E+00,  1.269E-02,  2.625E-10,  2.612E-12,  1.512E+03,  1.505E+01, 255
2019-043T16:49:27.021,   1, 240,   2,     1,   4,          0,     44.645,  99285.000,     1.789,    75.805,    22.282,   282.863, 2, 5.486E-04, -1.00,   2,  1.095E+00,  1.064E-02,  2.790E-10,  2.586E-12,  1.590E+03,  1.474E+01, 255
2019-043T16:49:28.021,   1, 240,   2,     1,   4,          0,     44.645,  99285.000,     1.788,    75.816,    22.279,   282.809, 2, 5.486E-04, -1.00,   2,  1.674E+00,  1.171E-02,  2.645E-10,  3.238E-12,  9.861E+02,  1.207E+01, 255
2019-043T16:49:29.021,   1, 240,   2,     1,   4,          0,     44.645,  99285.000,     1.788,    75.826,    22.276,   282.754, 2, 5.486E-04, -1.00,   2,  1.901E+00,  1.254E-02,  2.380E-10,  3.908E-12,  7.812E+02,  1.283E+01, 255
2019-043T16:49:39.021,   1, 240,   2,     1,   4,          0,     44.645,  99285.000,     1.784,    75.930,    22.246,   282.205, 2, 5.486E-04, -1.00,   2,  1.968E+00,  2.293E-02,  1.739E-10,  4.156E-12,  5.517E+02,  1.318E+01, 255
2019-043T16:49:40.021,   1, 240,   2,     1,   4,          0,     44.645,  99285.000,     1.784,    75.941,    22.243,   282.149, 2, 5.486E-04, -1.00,   2,  2.375E+00,  2.408E-02,  2.345E-10,  3.196E-12,  6.164E+02,  8.402E+00, 255
2019-043T16:49:41.021,   1, 240,   2,     1,   4,          0,     44.645,  99285.000,     1.783,    75.951,    22.240,   282.094, 2, 5.486E-04, -1.00,   2,  2.354E+00,  1.393E-02,  2.594E-10,  2.890E-12,  6.879E+02,  7.663E+00, 255
2019-043T16:49:42.021,   1, 240,   2,     1,   4,          0,     44.645,  99285.000,     1.783,    75.961,    22.237,   282.038, 2, 5.486E-04, -1.00,   2,  2.214E+00,  1.363E-02,  2.366E-10,  2.798E-12,  6.669E+02,  7.887E+00, 255
2019-043T16:49:54.021,   1, 240,   2,     1,   4,          0,     44.645,  99285.000,     1.778,    76.086,    22.200,   281.365, 2, 5.486E-04, -1.00,   2,  7.954E-01,  1.747E-02,  1.933E-10,  4.038E-12,  1.517E+03,  3.168E+01, 255
2019-043T16:49:55.021,   1, 240,   2,     1,   4,          0,     44.645,  99285.000,     1.778,    76.096,    22.197,   281.308, 2, 5.486E-04, -1.00,   2,  7.611E-01,  1.667E-02,  1.988E-10,  3.079E-12,  1.630E+03,  2.525E+01, 255
2019-043T16:49:56.021,   1, 240,   2,     1,   4,          0,     44.645,  99285.000,     1.777,    76.106,    22.194,   281.251, 2, 5.486E-04, -1.00,   2,  8.868E-01,  1.140E-02,  2.367E-10,  2.763E-12,  1.666E+03,  1.945E+01, 255
2019-043T16:49:57.021,   1, 240,   2,     1,   4,          0,     44.645,  99285.000,     1.777,    76.117,    22.191,   281.194, 2, 5.486E-04, -1.00,   2,  7.857E-01,  9.727E-03,  2.476E-10,  2.462E-12,  1.967E+03,  1.955E+01, 255
2019-043T16:49:58.021,   1, 240,   2,     1,   4,          0,     44.645,  99285.000,     1.777,    76.127,    22.188,   281.137, 2, 5.486E-04, -1.00,   2,  1.026E+00,  9.422E-03,  2.553E-10,  3.040E-12,  1.553E+03,  1.849E+01, 255
2019-043T16:49:59.021,   1, 240,   2,     1,   4,          0,     44.645,  99285.000,     1.776,    76.137,    22.185,   281.080, 2, 5.486E-04, -1.00,   2,  1.416E+00,  9.639E-03,  2.960E-10,  3.949E-12,  1.304E+03,  1.740E+01, 255
2019-043T16:50:09.021,   1, 240,   2,     1,   4,          0,     44.645,  99285.000,     1.772,    76.240,    22.153,   280.504, 2, 5.486E-04, -1.00,   2,  2.049E+00,  1.967E-02,  4.399E-10,  4.233E-12,  1.340E+03,  1.289E+01, 255
2019-043T16:50:10.021,   1, 240,   2,     1,   4,          0,     44.645,  99285.000,     1.772,    76.251,    22.150,   280.446, 2, 5.486E-04, -1.00,   2,  1.452E+00,  1.841E-02,  4.351E-10,  3.168E-12,  1.871E+03,  1.362E+01, 255
2019-043T16:50:11.021,   1, 240,   2,     1,   4,          0,     44.645,  99285.000,     1.771,    76.261,    22.147,   280.388, 2, 5.486E-04, -1.00,   2,  1.322E+00,  1.028E-02,  5.385E-10,  2.996E-12,  2.543E+03,  1.415E+01, 255
2019-043T16:50:12.021,   1, 240,   2,     1,   4,          0,     44.645,  99285.000,     1.771,    76.271,    22.143,   280.330, 2, 5.486E-04, -1.00,   2,  1.625E+00,  1.002E-02,  5.956E-10,  2.795E-12,  2.288E+03,  1.073E+01, 255
2019-043T16:50:13.021,   1, 240,   2,     1,   4,          0,     44.645,  99285.000,     1.771,    76.281,    22.140,   280.272, 2, 5.486E-04, -1.00,   2,  1.754E+00,  9.451E-03,  5.013E-10,  2.980E-12,  1.783E+03,  1.060E+01, 255
2019-043T16:50:14.021,   1, 240,   2,     1,   4,          0,     44.645,  99285.000,     1.770,    76.292,    22.137,   280.213, 2, 5.486E-04, -1.00,   2,  2.139E+00,  9.009E-03,  7.231E-10,  3.450E-12,  2.111E+03,  1.007E+01, 255
2019-043T16:50:15.021,   1, 240,   2,     1,   4,          0,     44.645,  99285.000,     1.770,    76.302,    22.134,   280.155, 2, 5.486E-04, -1.00,   2,  2.660E+00,  1.012E-02,  1.354E-09,  6.742E-12,  3.176E+03,  1.582E+01, 255
2019-043T16:50:24.021,   1, 240,   2,     1,   4,          0,     44.645,  99285.000,     1.766,    76.394,    22.104,   279.624, 2, 5.486E-04, -1.00,   2,  4.660E-01,  1.207E-02,  1.885E-10,  3.557E-12,  2.525E+03,  4.765E+01, 255
2019-043T16:50:25.021,   1, 240,   2,     1,   4,          0,     44.645,  99285.000,     1.766,    76.404,    22.101,   279.564, 2, 5.486E-04, -1.00,   2,  5.576E-01,  1.225E-02,  1.903E-10,  2.721E-12,  2.130E+03,  3.045E+01, 255
2019-043T16:50:26.021,   1, 240,   2,     1,   4,          0,     44.645,  99285.000,     1.765,    76.414,    22.098,   279.505, 2, 5.486E-04, -1.00,   2,  5.424E-01,  8.295E-03,  2.256E-10,  2.415E-12,  2.596E+03,  2.779E+01, 255
2019-043T16:50:27.021,   1, 240,   2,     1,   4,          0,     44.645,  99285.000,     1.765,    76.424,    22.094,   279.445, 2, 5.486E-04, -1.00,   2,  5.265E-01,  7.608E-03,  2.367E-10,  2.424E-12,  2.806E+03,  2.873E+01, 255
2019-043T16:50:28.021,   1, 240,   2,     1,   4,          0,     44.645,  99285.000,     1.765,    76.435,    22.091,   279.385, 2, 5.486E-04, -1.00,   2,  5.931E-01,  7.353E-03,  2.602E-10,  2.622E-12,  2.738E+03,  2.760E+01, 255
2019-043T16:50:29.021,   1, 240,   2,     1,   4,          0,     44.645,  99285.000,     1.764,    76.445,    22.088,   279.325, 2, 5.486E-04, -1.00,   2,  5.861E-01,  7.191E-03,  2.411E-10,  3.256E-12,  2.568E+03,  3.467E+01, 255
2019-043T16:50:30.021,   1, 240,   2,     1,   4,          0,     44.645,  99285.000,     1.764,    76.455,    22.084,   279.265, 2, 5.486E-04, -1.00,   2,  9.532E-01,  7.367E-03,  3.143E-10,  4.819E-12,  2.058E+03,  3.155E+01, 255
2019-043T16:50:40.021,   1, 240,   2,     1,   4,          0,     44.645,  99285.000,     1.760,    76.556,    22.051,   278.661, 2, 5.486E-04, -1.00,   2,  3.717E-01,  1.131E-02,  1.191E-10,  2.240E-12,  1.999E+03,  3.762E+01, 255
2019-043T16:50:41.021,   1, 240,   2,     1,   4,          0,     44.645,  99285.000,     1.759,    76.566,    22.048,   278.600, 2, 5.486E-04, -1.00,   2,  4.196E-01,  7.124E-03,  1.819E-10,  2.132E-12,  2.705E+03,  3.171E+01, 255
2019-043T16:50:42.021,   1, 240,   2,     1,   4,          0,     44.645,  99285.000,     1.759,    76.576,    22.044,   278.539, 2, 5.486E-04, -1.00,   2,  4.468E-01,  6.531E-03,  2.117E-10,  2.270E-12,  2.956E+03,  3.171E+01, 255
2019-043T16:50:43.021,   1, 240,   2,     1,   4,          0,     44.645,  99285.000,     1.759,    76.587,    22.041,   278.477, 2, 5.486E-04, -1.00,   2,  5.226E-01,  5.599E-03,  2.581E-10,  2.323E-12,  3.083E+03,  2.775E+01, 255
2019-043T16:50:44.022,   1, 240,   2,     1,   4,          0,     44.645,  99285.000,     1.758,    76.597,    22.037,   278.416, 2, 5.486E-04, -1.00,   2,  5.621E-01,  5.734E-03,  3.280E-10,  3.059E-12,  3.642E+03,  3.396E+01, 255
2019-043T16:50:45.022,   1, 240,   2,     1,   4,          0,     44.645,  99285.000,     1.758,    76.607,    22.034,   278.355, 2, 5.486E-04, -1.00,   2,  6.448E-01,  5.796E-03,  4.197E-10,  3.948E-12,  4.063E+03,  3.822E+01, 255
2019-043T16:51:12.022,   1, 240,   2,     1,   4,          0,     44.645,  99285.000,     1.747,    76.877,    21.939,   276.658, 2, 5.486E-04, -1.00,   2,  1.355E-01,  5.476E-03,  2.004E-10,  2.466E-12,  9.228E+03,  1.135E+02, 255
2019-043T16:51:13.022,   1, 240,   2,     1,   4,          0,     44.645,  99285.000,     1.747,    76.887,    21.935,   276.594, 2, 5.486E-04, -1.00,   2,  1.423E-01,  4.447E-03,  2.207E-10,  2.704E-12,  9.680E+03,  1.186E+02, 255
2019-043T16:51:14.022,   1, 240,   2,     1,   4,          0,     44.645,  99285.000,     1.746,    76.896,    21.932,   276.530, 2, 5.486E-04, -1.00,   2,  1.301E-01,  4.356E-03,  2.007E-10,  2.885E-12,  9.630E+03,  1.384E+02, 255
2019-043T16:51:15.022,   1, 240,   2,     1,   4,          0,     44.645,  99285.000,     1.746,    76.906,    21.928,   276.465, 2, 5.486E-04, -1.00,   2,  1.267E-01,  4.540E-03,  1.624E-10,  4.112E-12,  7.997E+03,  2.025E+02, 255
2019-043T16:51:26.022,   1, 240,   2,     1,   4,          0,     44.645,  99285.000,     1.742,    77.015,    21.888,   275.749, 2, 5.486E-04, -1.00,   2,  1.899E-01,  6.280E-03,  2.009E-10,  2.349E-12,  6.602E+03,  7.721E+01, 255
2019-043T16:51:27.022,   1, 240,   2,     1,   4,          0,     44.645,  99285.000,     1.741,    77.025,    21.884,   275.683, 2, 5.486E-04, -1.00,   2,  1.811E-01,  5.072E-03,  2.388E-10,  2.398E-12,  8.231E+03,  8.264E+01, 255
2019-043T16:51:28.022,   1, 240,   2,     1,   4,          0,     44.645,  99285.000,     1.741,    77.034,    21.880,   275.617, 2, 5.486E-04, -1.00,   2,  1.729E-01,  4.297E-03,  2.758E-10,  2.747E-12,  9.952E+03,  9.916E+01, 255
2019-043T16:51:29.022,   1, 240,   2,     1,   4,          0,     44.645,  99285.000,     1.740,    77.044,    21.877,   275.552, 2, 5.486E-04, -1.00,   2,  1.885E-01,  4.362E-03,  3.038E-10,  3.046E-12,  1.006E+04,  1.008E+02, 255
2019-043T16:51:56.022,   1, 240,   2,     1,   4,          0,     44.645,  99285.000,     1.730,    77.306,    21.773,   273.729, 2, 5.486E-04, -1.00,   2,  3.931E-02,  4.706E-03,  5.556E-11,  1.461E-12,  8.821E+03,  2.319E+02, 255
2019-043T16:51:57.022,   1, 240,   2,     1,   4,          0,     44.645,  99285.000,     1.729,    77.315,    21.769,   273.659, 2, 5.486E-04, -1.00,   2,  5.397E-02,  3.870E-03,  6.173E-11,  1.354E-12,  7.139E+03,  1.566E+02, 255
2019-043T16:51:58.022,   1, 240,   2,     1,   4,          0,     44.645,  99285.000,     1.729,    77.325,    21.765,   273.590, 2, 5.486E-04, -1.00,   2,  5.967E-02,  3.460E-03,  6.969E-11,  1.630E-12,  7.290E+03,  1.705E+02, 255
2019-043T16:51:59.022,   1, 240,   2,     1,   4,          0,     44.645,  99285.000,     1.729,    77.334,    21.761,   273.521, 2, 5.486E-04, -1.00,   2,  5.692E-02,  3.468E-03,  4.872E-11,  1.739E-12,  5.342E+03,  1.907E+02, 255
2019-043T16:52:13.023,   1, 240,   2,     1,   4,          0,     44.645,  99285.000,     1.723,    77.467,    21.705,   272.538, 2, 5.486E-04, -1.00,   2,  5.801E-02,  3.420E-03,  1.724E-10,  2.561E-12,  1.855E+04,  2.756E+02, 255
2019-043T16:52:14.023,   1, 240,   2,     1,   4,          0,     44.645,  99285.000,     1.723,    77.476,    21.701,   272.467, 2, 5.486E-04, -1.00,   2,  1.587E-01,  3.784E-03,  2.035E-10,  2.500E-12,  8.003E+03,  9.831E+01, 255
2019-043T16:52:15.023,   1, 240,   2,     1,   4,          0,     44.645,  99285.000,     1.722,    77.486,    21.697,   272.396, 2, 5.486E-04, -1.00,   2,  2.002E+00,  1.062E-02,  3.370E-10,  2.926E-12,  1.051E+03,  9.122E+00, 255
2019-043T16:52:57.023,   1, 240,   2,     1,   4,          0,     44.645,  99285.000,     1.706,    77.871,    21.519,   269.296, 2, 5.486E-04, -1.00,   2,  4.547E-03,  3.542E-03,  2.841E-12,  1.020E-12,  3.900E+03,  1.400E+03, 255
2019-043T16:52:58.023,   1, 240,   2,     1,   4,          0,     44.645,  99285.000,     1.705,    77.880,    21.514,   269.220, 2, 5.486E-04, -1.00,   3,  3.949E-03,  4.716E-03,  3.426E-12,  1.249E-12,  5.415E+03,  1.974E+03, 255
2019-043T16:52:59.023,   1, 240,   2,     1,   4,          0,     44.645,  99285.000,     1.705,    77.889,    21.510,   269.143, 2, 5.486E-04, -1.00,   2,  1.198E-02,  3.174E-03,  1.358E-11,  1.363E-12,  7.071E+03,  7.100E+02, 255
2019-043T17:00:15.028,   1, 240,   2,     1,   4,          0,     44.645,  99285.000,     1.536,    79.718,    18.760,   223.501, 2, 5.486E-04, -1.00,   3,  6.000E-03,  3.128E-03,  2.746E-12,  1.762E-12,  2.856E+03,  1.833E+03, 255
2019-043T17:00:16.028,   1, 240,   2,     1,   4,          0,     44.645,  99285.000,     1.536,    79.715,    18.752,   223.377, 2, 5.486E-04, -1.00,   2,  1.069E-02,  2.853E-03,  3.173E-12,  1.176E-12,  1.853E+03,  6.864E+02, 255
2019-043T17:00:17.028,   1, 240,   2,     1,   4,          0,     44.645,  99285.000,     1.535,    79.712,    18.745,   223.254, 2, 5.486E-04, -1.00,   2,  9.425E-03,  2.893E-03,  2.813E-12,  1.659E-12,  1.863E+03,  1.099E+03, 255
2019-043T17:00:18.028,   1, 240,   2,     1,   4,          0,     44.645,  99285.000,     1.535,    79.709,    18.737,   223.131, 2, 5.486E-04, -1.00,   2,  1.647E-02,  2.986E-03,  7.173E-12,  2.643E-12,  2.718E+03,  1.001E+03, 255
2019-043T17:00:42.029,   1, 240,   2,     1,   4,          0,     44.645,  99285.000,     1.526,    79.627,    18.556,   220.174, 2, 5.486E-04, -1.00,   2,  8.657E-03,  3.863E-03,  1.870E-12,  1.115E-12,  1.348E+03,  8.035E+02, 255
2019-043T17:00:43.029,   1, 240,   2,     1,   4,          0,     44.645,  99285.000,     1.526,    79.623,    18.549,   220.051, 2, 5.486E-04, -1.00,   3,  1.495E-02,  4.861E-03,  2.353E-12,  1.314E-12,  9.826E+02,  5.485E+02, 255